Regional Weather Roundup
Issued by NWS Lake Charles, LA

Home | Current Version | Previous Version | Text Only | Print | Product List | Glossary On
Versions: 1 2 3 4 5 6 7 8 9 10 11 12 13 14 15 16 17 18 19 20 21 22 23 24 25 26 27 28 29 30 31 32 33 34 35 36 37 38 39 40 41 42 43 44 45 46 47 48 49 50
000
ASUS44 KLCH 220810
RWRLCH
RWRLCH
REGIONAL WEATHER ROUNDUP
NATIONAL WEATHER SERVICE LAKE CHARLES LA
300 AM CDT MON SEP 22 2014

Note: "fair" indicates few or no clouds below 12,000 feet with no
significant weather and/or obstructions to visibility.


ACROSS SOUTHEAST TEXAS

CITY           SKY/WX    TMP DP  RH WIND       PRES   REMARKS
BEAUMONT       CLEAR     72  71  97 CALM      30.02S FOG
BEAUMONT CITY    N/A     71  71  98 CALM      30.03S
ORANGE         SUNNY    N/A N/A N/A CALM      30.04S HAZE
JASPER         PTCLDY    70  69  96 CALM      30.06S FOG
$$

ACROSS CENTRAL LOUISIANA

CITY           SKY/WX    TMP DP  RH WIND       PRES   REMARKS
LEESVILLE      PTCLDY    72  71  97 CALM      30.04S
FULLERTON        N/A     71  68  90 CALM      30.01S FOG
ALEXANDRIA INT CLEAR     73  71  93 NW3       30.02R
ESLER FIELD    CLEAR     71  69  93 CALM      30.03S
DERIDDER         N/A     72  71  95 CALM      30.05S FOG
OAKDALE        SUNNY     68  67  95 CALM      30.03S FOG
OPELOUSAS        N/A     68  67  98 CALM      30.02R FOG
$$

ACROSS SOUTHWEST AND SOUTH CENTRAL LOUISIANA

CITY           SKY/WX    TMP DP  RH WIND       PRES   REMARKS
SULPHUR        SUNNY     72  71  98 NW3       30.03S FOG
LAKE CHARLES   CLEAR     72  70  93 NW3       30.02S FOG
CHENNAULT INT  CLEAR     73  71  93 NW3       30.03R
CAMERON PHI      N/A     75  73  94 E3        30.04F
DEQUINCY         N/A     69  69  98 CALM      30.03F
JENNINGS         N/A     70  69  96 CALM      30.02S
LAFAYETTE      CLEAR     72  70  93 CALM      30.01F
NEW IBERIA     CLEAR     70  68  93 CALM      30.02F
ABBEVILLE        N/A     67  67 100 CALM      30.01F FOG
PATTERSON        N/A     70  68  94 CALM      30.03F VSB 1/2
SALT POINT       N/A     75  71  87 CALM      30.00F
$$

SELECTED SITES ACROSS THE REGION

CITY           SKY/WX    TMP DP  RH WIND       PRES   REMARKS
HOUSTON BUSH   PTCLDY    74  71  91 CALM      30.03F
HOUSTON HOBBY  PTCLDY    75  72  90 CALM      30.03S
GALVESTON      CLEAR     80  76  87 N3        30.04R
COLLEGE STAT   CLEAR     74  69  85 CALM      30.06S
CONROE         CLEAR     70  68  93 CALM      30.05S FOG
HUNTSVILLE     PTCLDY    72  68  87 CALM      30.06S
LUFKIN         PTCLDY    74  69  85 CALM      30.04S
SHREVEPORT     CLOUDY    79  70  74 NE6       30.06S
MONROE         CLEAR     76  63  64 N10       30.06R
NATCHEZ MS     CLEAR     72  68  88 CALM      30.03S
BATON ROUGE    CLEAR     69  67  93 CALM      30.02R
N.O. INTL ARPT PTCLDY    74  69  85 CALM      30.00F
SLIDELL        CLEAR     69  65  86 CALM      30.00F
$$

MARINE REPORTS

STATION/POSITION TIME  TEMP    WIND        PRES    VSBY  WAVE
                       AIR SEA DIR/SP/G                  HT/PER
                 (UTC) (F)     (DEG/KT/KT) (MB)    (MI)  (FT/S)
BUOY 30 S HIGH I 0800   82 83   80/  6/  6 1016.2R         2/ 5
SEA RIM ST PARK  0700   78      20/  2/  2 1017.1S
PORT ARTHUR      0800      83   CALM  /  1 1016.6S
SABINE PASS N    0800   80 83   20/  1/  2 1016.6S
TEXAS POINT      0800   79 83   20/  2/  3 1016.7S
CALCASIEU PASS   0800   79 83   70/  4/  4 1017.5F
LK CHARLES BEACH 0800   77 84              1016.6S
MARSH ISLAND     NOT AVBL
FRESH WATER LOCK 0800   75 83  340/  3/  4 1016.1F
AMERADA PASS     0800   75 82   30/  1/  2 1016.0S
$$


USA.gov is the U.S. government's official web portal to all federal, state and local government web resources and services.